Time,TemperatureF,DewpointF,PressureIn,WindDirection,WindDirectionDegrees,WindSpeedMPH,WindSpeedGustMPH,Humidity,HourlyPrecipIn,Conditions,Clouds,dailyrainin,SolarRadiationWatts/m^2,SoftwareType,DateUTC
2013-05-21 00:03:00,68.0,67.0,-100.00,West,261,2.0,5.0,97,0.00,,,0.00,0.000000,,2013-05-21 04:03:00,
2013-05-21 00:33:00,67.0,66.0,-100.00,South,183,1.0,5.0,98,0.00,,,0.00,0.000000,,2013-05-21 04:33:00,
2013-05-21 00:42:00,67.0,66.0,-100.00,South,183,1.0,5.0,98,0.00,,,0.00,0.000000,,2013-05-21 04:42:00,
2013-05-21 00:53:00,67.0,66.0,-100.00,South,183,1.0,5.0,98,0.00,,,0.00,0.000000,,2013-05-21 04:53:00,
2013-05-21 01:02:00,67.0,66.0,-100.00,South,183,1.0,5.0,98,0.00,,,0.00,0.000000,,2013-05-21 05:02:00,
2013-05-21 01:32:00,66.0,66.0,-100.00,West,259,0.0,5.0,99,0.00,,,0.00,0.000000,,2013-05-21 05:32:00,
2013-05-21 01:42:00,66.0,66.0,-100.00,West,259,0.0,5.0,99,0.00,,,0.00,0.000000,,2013-05-21 05:42:00,
2013-05-21 01:52:00,66.0,66.0,-100.00,West,259,0.0,5.0,99,0.00,,,0.00,0.000000,,2013-05-21 05:52:00,
2013-05-21 02:02:00,66.0,66.0,-100.00,West,259,0.0,5.0,99,0.00,,,0.00,0.000000,,2013-05-21 06:02:00,
2013-05-21 02:32:00,65.0,65.0,-100.00,WSW,256,1.0,4.0,99,0.00,,,0.00,0.000000,,2013-05-21 06:32:00,
2013-05-21 02:42:00,65.0,65.0,-100.00,WSW,256,1.0,4.0,99,0.00,,,0.00,0.000000,,2013-05-21 06:42:00,
2013-05-21 02:52:00,65.0,65.0,-100.00,WSW,256,1.0,4.0,99,0.00,,,0.00,0.000000,,2013-05-21 06:52:00,
2013-05-21 03:01:00,65.0,65.0,-100.00,WSW,256,1.0,4.0,99,0.00,,,0.00,0.000000,,2013-05-21 07:01:00,
2013-05-21 03:32:00,66.0,66.0,-100.00,ESE,115,0.0,5.0,99,0.00,,,0.00,0.000000,,2013-05-21 07:32:00,
2013-05-21 03:42:00,66.0,66.0,-100.00,ESE,115,0.0,5.0,99,0.00,,,0.00,0.000000,,2013-05-21 07:42:00,
2013-05-21 03:52:00,66.0,66.0,-100.00,ESE,115,0.0,5.0,99,0.00,,,0.00,0.000000,,2013-05-21 07:52:00,
2013-05-21 04:02:00,66.0,66.0,-100.00,ESE,115,0.0,5.0,99,0.00,,,0.00,0.000000,,2013-05-21 08:02:00,
2013-05-21 05:33:00,67.0,67.0,-100.00,WSW,256,0.0,0.0,99,-99.99,,,0.00,0.000000,,2013-05-21 09:33:00,
2013-05-21 05:42:00,67.0,67.0,-100.00,WSW,256,0.0,0.0,99,-99.99,,,0.00,0.000000,,2013-05-21 09:42:00,
2013-05-21 05:53:00,67.0,67.0,-100.00,WSW,256,0.0,0.0,99,-99.99,,,0.00,0.000000,,2013-05-21 09:53:00,
2013-05-21 06:03:00,67.0,67.0,-100.00,WSW,256,0.0,0.0,99,-99.99,,,0.00,0.000000,,2013-05-21 10:03:00,
2013-05-21 06:33:00,67.0,67.0,-100.00,NW,320,0.0,0.0,99,0.00,,,0.00,0.000000,,2013-05-21 10:33:00,
2013-05-21 06:42:00,67.0,67.0,-100.00,NW,320,0.0,0.0,99,0.00,,,0.00,0.000000,,2013-05-21 10:42:00,
2013-05-21 06:52:00,67.0,67.0,-100.00,NW,320,0.0,0.0,99,0.00,,,0.00,0.000000,,2013-05-21 10:52:00,
2013-05-21 07:02:00,67.0,67.0,-100.00,NW,320,0.0,0.0,99,0.00,,,0.00,0.000000,,2013-05-21 11:02:00,
2013-05-21 07:32:00,66.0,66.0,-100.00,NE,37,0.0,1.0,99,0.00,,,0.00,10.000000,,2013-05-21 11:32:00,
2013-05-21 07:42:00,66.0,66.0,-100.00,NE,37,0.0,1.0,99,0.00,,,0.00,10.000000,,2013-05-21 11:42:00,
2013-05-21 07:52:00,66.0,66.0,-100.00,NE,37,0.0,1.0,99,0.00,,,0.00,10.000000,,2013-05-21 11:52:00,
2013-05-21 08:01:00,66.0,66.0,-100.00,NE,37,0.0,1.0,99,0.00,,,0.00,10.000000,,2013-05-21 12:01:00,
2013-05-21 08:32:00,69.0,69.0,-100.00,SW,227,1.0,4.0,99,0.00,,,0.00,61.000000,,2013-05-21 12:32:00,
2013-05-21 08:42:00,69.0,69.0,-100.00,SW,227,1.0,4.0,99,0.00,,,0.00,61.000000,,2013-05-21 12:42:00,
2013-05-21 08:52:00,69.0,69.0,-100.00,SW,227,1.0,4.0,99,0.00,,,0.00,61.000000,,2013-05-21 12:52:00,
2013-05-21 09:01:00,69.0,69.0,-100.00,SW,227,1.0,4.0,99,0.00,,,0.00,61.000000,,2013-05-21 13:01:00,
2013-05-21 09:32:00,72.0,70.0,-100.00,WSW,241,3.0,5.0,93,0.00,,,-99.99,134.000000,,2013-05-21 13:32:00,
2013-05-21 09:42:00,72.0,70.0,-100.00,WSW,241,3.0,5.0,93,0.00,,,-99.99,134.000000,,2013-05-21 13:42:00,
2013-05-21 09:52:00,72.0,70.0,-100.00,WSW,241,3.0,5.0,93,0.00,,,-99.99,134.000000,,2013-05-21 13:52:00,
2013-05-21 10:02:00,72.0,70.0,-100.00,WSW,241,3.0,5.0,93,0.00,,,-99.99,134.000000,,2013-05-21 14:02:00,
2013-05-21 10:32:00,76.0,72.0,-100.00,SW,229,4.0,6.0,87,0.00,,,0.00,239.000000,,2013-05-21 14:32:00,
2013-05-21 10:42:00,76.0,72.0,-100.00,SW,229,4.0,6.0,87,0.00,,,0.00,239.000000,,2013-05-21 14:42:00,
2013-05-21 10:52:00,76.0,72.0,-100.00,SW,229,4.0,6.0,87,0.00,,,0.00,239.000000,,2013-05-21 14:52:00,
2013-05-21 11:01:00,76.0,72.0,-100.00,SW,229,4.0,6.0,87,0.00,,,0.00,239.000000,,2013-05-21 15:01:00,
2013-05-21 12:32:00,81.0,71.0,-100.00,SW,232,4.0,9.0,72,-99.99,,,0.00,553.000000,,2013-05-21 16:32:00,
2013-05-21 12:42:00,81.0,71.0,-100.00,SW,232,4.0,9.0,72,-99.99,,,0.00,553.000000,,2013-05-21 16:42:00,
2013-05-21 12:53:00,81.0,71.0,-100.00,SW,232,4.0,9.0,72,-99.99,,,0.00,553.000000,,2013-05-21 16:53:00,
2013-05-21 13:02:00,81.0,71.0,-100.00,SW,232,4.0,9.0,72,-99.99,,,0.00,553.000000,,2013-05-21 17:02:00,
2013-05-21 13:33:00,85.0,73.0,-100.00,SW,215,5.0,10.0,68,0.00,,,0.00,789.000000,,2013-05-21 17:33:00,
2013-05-21 13:44:00,85.0,73.0,-100.00,SW,215,5.0,10.0,68,0.00,,,0.00,789.000000,,2013-05-21 17:44:00,
2013-05-21 13:52:00,85.0,73.0,-100.00,SW,215,5.0,10.0,68,0.00,,,0.00,789.000000,,2013-05-21 17:52:00,
2013-05-21 14:02:00,85.0,73.0,-100.00,SW,215,5.0,10.0,68,0.00,,,0.00,789.000000,,2013-05-21 18:02:00,
2013-05-21 14:32:00,87.0,73.0,-100.00,SW,226,6.0,11.0,64,0.00,,,0.00,1019.000000,,2013-05-21 18:32:00,
2013-05-21 14:42:00,87.0,73.0,-100.00,SW,226,6.0,11.0,64,0.00,,,0.00,1019.000000,,2013-05-21 18:42:00,
2013-05-21 14:52:00,87.0,73.0,-100.00,SW,226,6.0,11.0,64,0.00,,,0.00,1019.000000,,2013-05-21 18:52:00,
2013-05-21 15:01:00,87.0,73.0,-100.00,SW,226,6.0,11.0,64,0.00,,,0.00,1019.000000,,2013-05-21 19:01:00,
2013-05-21 15:32:00,88.0,74.0,-100.00,West,265,4.0,11.0,64,0.00,,,-99.99,781.000000,,2013-05-21 19:32:00,
2013-05-21 15:42:00,88.0,74.0,-100.00,West,265,4.0,11.0,64,0.00,,,-99.99,781.000000,,2013-05-21 19:42:00,
2013-05-21 15:52:00,88.0,74.0,-100.00,West,265,4.0,11.0,64,0.00,,,-99.99,781.000000,,2013-05-21 19:52:00,
2013-05-21 16:03:00,88.0,74.0,-100.00,West,265,4.0,11.0,64,0.00,,,-99.99,781.000000,,2013-05-21 20:03:00,
2013-05-21 16:33:00,87.0,72.0,-100.00,WSW,257,6.0,14.0,61,0.00,,,0.00,669.000000,,2013-05-21 20:33:00,
2013-05-21 16:42:00,87.0,72.0,-100.00,WSW,257,6.0,14.0,61,0.00,,,0.00,669.000000,,2013-05-21 20:42:00,
2013-05-21 16:52:00,87.0,72.0,-100.00,WSW,257,6.0,14.0,61,0.00,,,0.00,669.000000,,2013-05-21 20:52:00,
2013-05-21 17:02:00,87.0,72.0,-100.00,WSW,257,6.0,14.0,61,0.00,,,0.00,669.000000,,2013-05-21 21:02:00,
2013-05-21 17:33:00,76.0,67.0,-100.00,NW,326,4.0,10.0,75,0.00,,,-99.99,115.000000,,2013-05-21 21:33:00,
2013-05-21 17:43:00,76.0,67.0,-100.00,NW,326,4.0,10.0,75,0.00,,,-99.99,115.000000,,2013-05-21 21:43:00,
2013-05-21 17:54:00,76.0,67.0,-100.00,NW,326,4.0,10.0,75,0.00,,,-99.99,115.000000,,2013-05-21 21:54:00,
2013-05-21 18:02:00,76.0,67.0,-100.00,NW,326,4.0,10.0,75,0.00,,,-99.99,115.000000,,2013-05-21 22:02:00,
2013-05-21 18:33:00,73.0,71.0,-100.00,SSW,204,0.0,8.0,93,0.00,,,0.00,39.000000,,2013-05-21 22:33:00,
2013-05-21 18:42:00,73.0,71.0,-100.00,SSW,204,0.0,8.0,93,0.00,,,0.00,39.000000,,2013-05-21 22:42:00,
2013-05-21 18:53:00,73.0,71.0,-100.00,SSW,204,0.0,8.0,93,0.00,,,0.00,39.000000,,2013-05-21 22:53:00,
2013-05-21 19:02:00,73.0,71.0,-100.00,SSW,204,0.0,8.0,93,0.00,,,0.00,39.000000,,2013-05-21 23:02:00,
2013-05-21 19:32:00,73.0,69.0,-100.00,WSW,253,6.0,11.0,87,0.00,,,0.00,67.000000,,2013-05-21 23:32:00,
2013-05-21 19:42:00,73.0,69.0,-100.00,WSW,253,6.0,11.0,87,0.00,,,0.00,67.000000,,2013-05-21 23:42:00,
2013-05-21 19:52:00,73.0,69.0,-100.00,WSW,253,6.0,11.0,87,0.00,,,0.00,67.000000,,2013-05-21 23:52:00,
2013-05-21 20:01:00,73.0,69.0,-100.00,WSW,253,6.0,11.0,87,0.00,,,0.00,67.000000,,2013-05-22 00:01:00,
2013-05-21 20:32:00,72.0,70.0,-100.00,WSW,244,4.0,9.0,94,0.00,,,0.00,42.000000,,2013-05-22 00:32:00,
2013-05-21 20:42:00,72.0,70.0,-100.00,WSW,244,4.0,9.0,94,0.00,,,0.00,42.000000,,2013-05-22 00:42:00,
2013-05-21 20:52:00,72.0,70.0,-100.00,WSW,244,4.0,9.0,94,0.00,,,0.00,42.000000,,2013-05-22 00:52:00,
2013-05-21 21:01:00,72.0,70.0,-100.00,WSW,244,4.0,9.0,94,0.00,,,0.00,42.000000,,2013-05-22 01:01:00,
2013-05-21 21:32:00,70.0,68.0,-100.00,SW,232,4.0,9.0,95,0.00,,,0.00,1.000000,,2013-05-22 01:32:00,
2013-05-21 21:42:00,70.0,68.0,-100.00,SW,232,4.0,9.0,95,0.00,,,0.00,1.000000,,2013-05-22 01:42:00,
2013-05-21 21:52:00,70.0,68.0,-100.00,SW,232,4.0,9.0,95,0.00,,,0.00,1.000000,,2013-05-22 01:52:00,
2013-05-21 22:02:00,70.0,68.0,-100.00,SW,232,4.0,9.0,95,0.00,,,0.00,1.000000,,2013-05-22 02:02:00,
2013-05-21 22:32:00,69.0,68.0,-100.00,WSW,251,3.0,7.0,98,0.00,,,0.00,0.000000,,2013-05-22 02:32:00,
2013-05-21 22:42:00,69.0,68.0,-100.00,WSW,251,3.0,7.0,98,0.00,,,0.00,0.000000,,2013-05-22 02:42:00,
2013-05-21 22:52:00,69.0,68.0,-100.00,WSW,251,3.0,7.0,98,0.00,,,0.00,0.000000,,2013-05-22 02:52:00,
2013-05-21 23:01:00,69.0,68.0,-100.00,WSW,251,3.0,7.0,98,0.00,,,0.00,0.000000,,2013-05-22 03:01:00,
2013-05-21 23:33:00,68.0,68.0,-100.00,SSE,168,0.0,4.0,99,0.00,,,0.00,0.000000,,2013-05-22 03:33:00,
2013-05-21 23:43:00,68.0,68.0,-100.00,SSE,168,0.0,4.0,99,0.00,,,0.00,0.000000,,2013-05-22 03:43:00,
2013-05-21 23:53:00,68.0,68.0,-100.00,SSE,168,0.0,4.0,99,0.00,,,0.00,0.000000,,2013-05-22 03:53:00,